Time,TemperatureF,DewpointF,PressureIn,WindDirection,WindDirectionDegrees,WindSpeedMPH,WindSpeedGustMPH,Humidity,HourlyPrecipIn,Conditions,Clouds,dailyrainin,SoftwareType,DateUTC
2013-02-09 00:00:00,52.8,50.8,30.11,West,277,1.0,1.0,93,0.00,,,0.00,Wunderground v.1.15,2013-02-09 05:00:00,
2013-02-09 00:02:00,52.7,50.7,30.10,West,261,0.0,2.0,93,0.00,,,0.00,Wunderground v.1.15,2013-02-09 05:02:00,
2013-02-09 00:04:00,52.7,50.7,30.11,West,281,0.0,2.0,93,0.00,,,0.00,Wunderground v.1.15,2013-02-09 05:04:00,
2013-02-09 00:10:00,52.6,50.6,30.10,West,263,0.0,0.0,93,0.00,,,0.00,Wunderground v.1.15,2013-02-09 05:10:00,
2013-02-09 00:16:00,52.5,50.5,30.11,West,269,1.0,1.0,93,0.00,,,0.00,Wunderground v.1.15,2013-02-09 05:16:00,
2013-02-09 00:22:00,52.5,50.5,30.11,WNW,284,1.0,1.0,93,0.00,,,0.00,Wunderground v.1.15,2013-02-09 05:22:00,
2013-02-09 00:28:00,52.3,50.3,30.10,West,265,1.0,1.0,93,0.00,,,0.00,Wunderground v.1.15,2013-02-09 05:28:00,
2013-02-09 00:34:00,52.2,50.5,30.10,WSW,252,0.0,1.0,94,0.00,,,0.00,Wunderground v.1.15,2013-02-09 05:34:00,
2013-02-09 00:38:00,52.2,50.5,30.10,West,268,0.0,1.0,94,0.00,,,0.00,Wunderground v.1.15,2013-02-09 05:38:00,
2013-02-09 00:44:00,52.1,50.4,30.10,West,265,0.0,1.0,94,0.00,,,0.00,Wunderground v.1.15,2013-02-09 05:44:00,
2013-02-09 00:50:00,51.9,50.2,30.10,WNW,283,0.0,0.0,94,0.00,,,0.00,Wunderground v.1.15,2013-02-09 05:50:00,
2013-02-09 00:56:00,51.9,50.2,30.11,West,279,0.0,1.0,94,0.00,,,0.00,Wunderground v.1.15,2013-02-09 05:56:00,
2013-02-09 01:02:00,51.8,50.1,30.11,West,273,1.0,2.0,94,0.00,,,0.00,Wunderground v.1.15,2013-02-09 06:02:00,
2013-02-09 01:08:00,51.8,50.1,30.11,West,275,1.0,2.0,94,0.00,,,0.00,Wunderground v.1.15,2013-02-09 06:08:00,
2013-02-09 01:14:00,51.7,50.0,30.11,West,279,1.0,1.0,94,0.00,,,0.00,Wunderground v.1.15,2013-02-09 06:14:00,
2013-02-09 01:20:00,51.6,49.9,30.11,WNW,283,1.0,1.0,94,0.00,,,0.00,Wunderground v.1.15,2013-02-09 06:20:00,
2013-02-09 01:26:00,51.5,49.8,30.11,West,271,0.0,1.0,94,0.00,,,0.00,Wunderground v.1.15,2013-02-09 06:26:00,
2013-02-09 01:32:00,51.3,49.6,30.11,WNW,288,0.0,2.0,94,0.00,,,0.00,Wunderground v.1.15,2013-02-09 06:32:00,
2013-02-09 01:38:00,51.3,49.9,30.11,WNW,286,1.0,2.0,95,0.00,,,0.00,Wunderground v.1.15,2013-02-09 06:38:00,
2013-02-09 01:44:00,51.3,49.9,30.11,WNW,288,2.0,3.0,95,0.00,,,0.00,Wunderground v.1.15,2013-02-09 06:44:00,
2013-02-09 01:50:00,51.4,50.0,30.11,WNW,298,2.0,3.0,95,0.00,,,0.00,Wunderground v.1.15,2013-02-09 06:50:00,
2013-02-09 01:56:00,51.3,49.9,30.11,West,276,2.0,3.0,95,0.00,,,0.00,Wunderground v.1.15,2013-02-09 06:56:00,
2013-02-09 02:02:00,51.2,49.8,30.11,West,280,2.0,2.0,95,0.00,,,0.00,Wunderground v.1.15,2013-02-09 07:02:00,
2013-02-09 02:08:00,51.2,49.8,30.11,West,275,1.0,2.0,95,0.00,,,0.00,Wunderground v.1.15,2013-02-09 07:08:00,
2013-02-09 02:14:00,51.2,49.8,30.11,NNW,333,1.0,2.0,95,0.00,,,0.00,Wunderground v.1.15,2013-02-09 07:14:00,
2013-02-09 02:20:00,51.2,49.8,30.11,West,281,1.0,1.0,95,0.00,,,0.00,Wunderground v.1.15,2013-02-09 07:20:00,
2013-02-09 02:26:00,51.3,49.9,30.11,WNW,291,2.0,2.0,95,0.00,,,0.00,Wunderground v.1.15,2013-02-09 07:26:00,
2013-02-09 02:32:00,51.4,50.0,30.11,NNW,331,2.0,5.0,95,0.00,,,0.00,Wunderground v.1.15,2013-02-09 07:32:00,
2013-02-09 02:38:00,51.5,50.1,30.11,East,85,3.0,5.0,95,0.00,,,0.00,Wunderground v.1.15,2013-02-09 07:38:00,
2013-02-09 02:44:00,51.5,50.1,30.11,SW,223,3.0,3.0,95,0.00,,,0.00,Wunderground v.1.15,2013-02-09 07:44:00,
2013-02-09 02:50:00,51.5,49.8,30.11,SW,219,2.0,2.0,94,0.00,,,0.00,Wunderground v.1.15,2013-02-09 07:50:00,
2013-02-09 02:56:00,51.6,49.9,30.12,SSW,194,2.0,3.0,94,0.00,,,0.00,Wunderground v.1.15,2013-02-09 07:56:00,
2013-02-09 03:02:00,51.5,49.8,30.12,WSW,248,3.0,4.0,94,0.00,,,0.00,Wunderground v.1.15,2013-02-09 08:02:00,
2013-02-09 03:08:00,51.4,49.7,30.12,WNW,288,2.0,4.0,94,0.00,,,0.00,Wunderground v.1.15,2013-02-09 08:08:00,
2013-02-09 03:14:00,51.3,49.6,30.12,ESE,122,2.0,2.0,94,0.00,,,0.00,Wunderground v.1.15,2013-02-09 08:14:00,
2013-02-09 03:20:00,51.2,49.5,30.12,WNW,286,2.0,2.0,94,0.00,,,0.00,Wunderground v.1.15,2013-02-09 08:20:00,
2013-02-09 03:26:00,51.0,49.3,30.12,West,271,1.0,2.0,94,0.00,,,0.00,Wunderground v.1.15,2013-02-09 08:26:00,
2013-02-09 03:32:00,50.8,49.1,30.12,East,80,1.0,1.0,94,0.00,,,0.00,Wunderground v.1.15,2013-02-09 08:32:00,
2013-02-09 03:38:00,50.7,49.0,30.12,WNW,287,1.0,3.0,94,0.00,,,0.00,Wunderground v.1.15,2013-02-09 08:38:00,
2013-02-09 03:44:00,50.5,48.8,30.12,NW,308,1.0,2.0,94,0.00,,,0.00,Wunderground v.1.15,2013-02-09 08:44:00,
2013-02-09 03:50:00,50.3,48.6,30.13,WNW,291,1.0,1.0,94,0.00,,,0.00,Wunderground v.1.15,2013-02-09 08:50:00,
2013-02-09 03:56:00,50.1,48.4,30.13,West,265,1.0,1.0,94,0.00,,,0.00,Wunderground v.1.15,2013-02-09 08:56:00,
2013-02-09 04:02:00,50.0,48.3,30.13,West,265,1.0,8.0,94,0.00,,,0.00,Wunderground v.1.15,2013-02-09 09:02:00,
2013-02-09 04:08:00,49.8,48.1,30.13,West,259,1.0,8.0,94,0.00,,,0.00,Wunderground v.1.15,2013-02-09 09:08:00,
2013-02-09 04:14:00,49.7,48.0,30.13,NW,313,1.0,3.0,94,0.00,,,0.00,Wunderground v.1.15,2013-02-09 09:14:00,
2013-02-09 04:20:00,49.6,47.9,30.13,NW,320,2.0,2.0,94,0.00,,,0.00,Wunderground v.1.15,2013-02-09 09:20:00,
2013-02-09 04:26:00,49.5,47.8,30.13,NNW,327,2.0,3.0,94,0.00,,,0.00,Wunderground v.1.15,2013-02-09 09:26:00,
2013-02-09 04:32:00,49.4,47.7,30.14,WNW,302,3.0,4.0,94,0.00,,,0.00,Wunderground v.1.15,2013-02-09 09:32:00,
2013-02-09 04:38:00,49.3,47.6,30.14,West,265,3.0,4.0,94,0.00,,,0.00,Wunderground v.1.15,2013-02-09 09:38:00,
2013-02-09 04:44:00,49.2,47.5,30.14,ESE,107,3.0,3.0,94,0.00,,,0.00,Wunderground v.1.15,2013-02-09 09:44:00,
2013-02-09 04:50:00,49.2,47.8,30.14,West,275,2.0,2.0,95,0.00,,,0.00,Wunderground v.1.15,2013-02-09 09:50:00,
2013-02-09 04:56:00,49.1,47.7,30.15,NW,323,3.0,5.0,95,0.00,,,0.00,Wunderground v.1.15,2013-02-09 09:56:00,
2013-02-09 05:02:00,49.1,47.4,30.15,ENE,70,3.0,3.0,94,0.00,,,0.00,Wunderground v.1.15,2013-02-09 10:02:00,
2013-02-09 05:08:00,49.0,47.6,30.15,NNW,347,3.0,3.0,95,0.00,,,0.00,Wunderground v.1.15,2013-02-09 10:08:00,
2013-02-09 05:14:00,48.9,47.2,30.16,WSW,248,3.0,4.0,94,0.00,,,0.00,Wunderground v.1.15,2013-02-09 10:14:00,
2013-02-09 05:20:00,48.8,47.2,30.16,WNW,295,3.0,3.0,94,0.00,,,0.00,Wunderground v.1.15,2013-02-09 10:20:00,
2013-02-09 05:26:00,48.7,47.1,30.16,WSW,246,3.0,4.0,94,0.00,,,0.00,Wunderground v.1.15,2013-02-09 10:26:00,
2013-02-09 05:32:00,48.5,46.9,30.16,SW,236,3.0,3.0,94,0.00,,,0.00,Wunderground v.1.15,2013-02-09 10:32:00,
2013-02-09 05:38:00,48.4,46.8,30.16,SW,226,3.0,3.0,94,0.00,,,0.00,Wunderground v.1.15,2013-02-09 10:38:00,
2013-02-09 05:44:00,48.4,46.8,30.16,SSW,209,3.0,5.0,94,0.00,,,0.00,Wunderground v.1.15,2013-02-09 10:44:00,
2013-02-09 05:50:00,48.3,46.7,30.17,SW,215,3.0,3.0,94,0.00,,,0.00,Wunderground v.1.15,2013-02-09 10:50:00,
2013-02-09 05:56:00,48.2,46.6,30.17,West,271,2.0,3.0,94,0.00,,,0.00,Wunderground v.1.15,2013-02-09 10:56:00,
2013-02-09 06:02:00,48.1,46.5,30.18,WSW,246,2.0,7.0,94,0.00,,,0.00,Wunderground v.1.15,2013-02-09 11:02:00,
2013-02-09 06:08:00,48.1,46.5,30.18,WSW,256,2.0,7.0,94,0.00,,,0.00,Wunderground v.1.15,2013-02-09 11:08:00,
2013-02-09 06:14:00,47.9,46.0,30.19,West,268,1.0,2.0,93,0.00,,,0.00,Wunderground v.1.15,2013-02-09 11:14:00,
2013-02-09 06:20:00,47.7,46.1,30.19,SW,221,1.0,1.0,94,0.00,,,0.00,Wunderground v.1.15,2013-02-09 11:20:00,
2013-02-09 06:26:00,47.5,45.9,30.19,West,267,1.0,1.0,94,0.00,,,0.00,Wunderground v.1.15,2013-02-09 11:26:00,
2013-02-09 06:32:00,47.3,45.7,30.20,SE,144,2.0,2.0,94,0.00,,,0.00,Wunderground v.1.15,2013-02-09 11:32:00,
2013-02-09 06:38:00,47.2,45.6,30.20,SW,221,2.0,2.0,94,0.00,,,0.00,Wunderground v.1.15,2013-02-09 11:38:00,
2013-02-09 06:44:00,46.9,45.3,30.20,SSW,195,1.0,4.0,94,0.00,,,0.00,Wunderground v.1.15,2013-02-09 11:44:00,
2013-02-09 06:50:00,46.8,45.2,30.20,South,187,1.0,2.0,94,0.00,,,0.00,Wunderground v.1.15,2013-02-09 11:50:00,
2013-02-09 06:56:00,46.6,45.0,30.20,SW,223,1.0,2.0,94,0.00,,,0.00,Wunderground v.1.15,2013-02-09 11:56:00,
2013-02-09 07:02:00,46.4,44.8,30.20,SW,221,1.0,2.0,94,0.00,,,0.00,Wunderground v.1.15,2013-02-09 12:02:00,
2013-02-09 07:08:00,46.2,44.6,30.20,ESE,105,1.0,5.0,94,0.00,,,0.00,Wunderground v.1.15,2013-02-09 12:08:00,
2013-02-09 07:14:00,46.1,44.5,30.20,SE,138,1.0,1.0,94,0.00,,,0.00,Wunderground v.1.15,2013-02-09 12:14:00,
2013-02-09 07:20:00,46.0,44.4,30.20,SSE,147,1.0,1.0,94,0.00,,,0.00,Wunderground v.1.15,2013-02-09 12:20:00,
2013-02-09 07:26:00,46.1,44.5,30.21,SSW,193,1.0,1.0,94,0.00,,,0.00,Wunderground v.1.15,2013-02-09 12:26:00,
2013-02-09 07:32:00,46.4,44.8,30.21,SSE,160,1.0,1.0,94,0.00,,,0.00,Wunderground v.1.15,2013-02-09 12:32:00,
2013-02-09 07:38:00,46.8,45.2,30.21,SE,136,2.0,3.0,94,0.00,,,0.00,Wunderground v.1.15,2013-02-09 12:38:00,
2013-02-09 07:44:00,47.3,45.7,30.21,SW,217,2.0,4.0,94,0.00,,,0.00,Wunderground v.1.15,2013-02-09 12:44:00,
2013-02-09 07:50:00,47.7,45.8,30.21,ESE,117,2.0,2.0,93,0.00,,,0.00,Wunderground v.1.15,2013-02-09 12:50:00,
2013-02-09 07:56:00,48.2,46.3,30.21,SSW,206,2.0,2.0,93,0.00,,,0.00,Wunderground v.1.15,2013-02-09 12:56:00,
2013-02-09 08:02:00,48.5,46.3,30.22,WSW,242,2.0,4.0,92,0.00,,,0.00,Wunderground v.1.15,2013-02-09 13:02:00,
2013-02-09 08:08:00,49.1,46.9,30.22,South,189,2.0,4.0,92,0.00,,,0.00,Wunderground v.1.15,2013-02-09 13:08:00,
2013-02-09 08:14:00,49.6,47.1,30.22,South,187,2.0,3.0,91,0.00,,,0.00,Wunderground v.1.15,2013-02-09 13:14:00,
2013-02-09 08:20:00,50.2,47.7,30.22,WSW,256,2.0,2.0,91,0.00,,,0.00,Wunderground v.1.15,2013-02-09 13:20:00,
2013-02-09 08:26:00,50.9,48.1,30.22,WSW,242,1.0,2.0,90,0.00,,,0.00,Wunderground v.1.15,2013-02-09 13:26:00,
2013-02-09 08:32:00,51.3,48.2,30.22,East,89,2.0,3.0,89,0.00,,,0.00,Wunderground v.1.15,2013-02-09 13:32:00,
2013-02-09 08:38:00,51.7,48.6,30.22,SSE,155,2.0,3.0,89,0.00,,,0.00,Wunderground v.1.15,2013-02-09 13:38:00,
2013-02-09 08:44:00,52.4,49.3,30.22,SE,126,2.0,4.0,89,0.00,,,0.00,Wunderground v.1.15,2013-02-09 13:44:00,
2013-02-09 08:50:00,53.3,49.8,30.23,East,90,1.0,2.0,88,0.00,,,0.00,Wunderground v.1.15,2013-02-09 13:50:00,
2013-02-09 08:56:00,54.1,50.3,30.23,ENE,75,1.0,3.0,87,0.00,,,0.00,Wunderground v.1.15,2013-02-09 13:56:00,
2013-02-09 09:02:00,54.6,50.5,30.23,ENE,76,2.0,6.0,86,0.00,,,0.00,Wunderground v.1.15,2013-02-09 14:02:00,
2013-02-09 09:08:00,55.2,51.1,30.23,ENE,66,2.0,6.0,86,0.00,,,0.00,Wunderground v.1.15,2013-02-09 14:08:00,
2013-02-09 09:14:00,55.8,51.4,30.23,ENE,74,2.0,2.0,85,0.00,,,0.00,Wunderground v.1.15,2013-02-09 14:14:00,
2013-02-09 09:20:00,56.8,52.3,30.23,ENE,65,2.0,5.0,85,0.00,,,0.00,Wunderground v.1.15,2013-02-09 14:20:00,
2013-02-09 09:26:00,57.2,52.1,30.24,East,80,3.0,9.0,83,0.00,,,0.00,Wunderground v.1.15,2013-02-09 14:26:00,
2013-02-09 09:32:00,57.4,51.9,30.24,ESE,107,4.0,9.0,82,0.00,,,0.00,Wunderground v.1.15,2013-02-09 14:32:00,
2013-02-09 09:38:00,57.7,52.6,30.24,SSE,150,5.0,9.0,83,0.00,,,0.00,Wunderground v.1.15,2013-02-09 14:38:00,
2013-02-09 09:44:00,58.0,51.9,30.24,East,79,6.0,7.0,80,0.00,,,0.00,Wunderground v.1.15,2013-02-09 14:44:00,
2013-02-09 09:50:00,58.2,52.1,30.25,ESE,118,6.0,7.0,80,0.00,,,0.00,Wunderground v.1.15,2013-02-09 14:50:00,
2013-02-09 09:56:00,58.3,51.8,30.25,SSE,155,6.0,8.0,79,0.00,,,0.00,Wunderground v.1.15,2013-02-09 14:56:00,
2013-02-09 12:20:00,62.4,49.6,30.27,NNE,23,6.0,9.0,63,0.00,,,0.00,Wunderground v.1.15,2013-02-09 17:20:00,
2013-02-09 12:26:00,62.7,50.3,30.27,ESE,107,7.0,9.0,64,0.00,,,0.00,Wunderground v.1.15,2013-02-09 17:26:00,
2013-02-09 12:32:00,62.7,50.3,30.26,East,94,7.0,8.0,64,0.00,,,0.00,Wunderground v.1.15,2013-02-09 17:32:00,
2013-02-09 12:38:00,62.8,50.0,30.27,East,79,7.0,8.0,63,0.00,,,0.00,Wunderground v.1.15,2013-02-09 17:38:00,
2013-02-09 12:44:00,61.9,48.3,30.26,NE,40,10.0,15.0,61,0.00,,,0.00,Wunderground v.1.15,2013-02-09 17:44:00,
2013-02-09 12:50:00,61.3,48.6,30.26,NE,55,11.0,11.0,63,0.00,,,0.00,Wunderground v.1.15,2013-02-09 17:50:00,
2013-02-09 12:56:00,61.9,49.6,30.26,SE,134,9.0,11.0,64,0.00,,,0.00,Wunderground v.1.15,2013-02-09 17:56:00,
2013-02-09 13:02:00,62.1,49.4,30.26,ESE,103,7.0,10.0,63,0.00,,,0.00,Wunderground v.1.15,2013-02-09 18:02:00,
2013-02-09 13:08:00,61.8,49.1,30.25,South,174,8.0,10.0,63,0.00,,,0.00,Wunderground v.1.15,2013-02-09 18:08:00,
2013-02-09 13:14:00,62.0,49.7,30.25,NE,41,8.0,9.0,64,0.00,,,0.00,Wunderground v.1.15,2013-02-09 18:14:00,
2013-02-09 13:20:00,62.0,50.5,30.25,East,94,7.0,10.0,66,0.00,,,0.00,Wunderground v.1.15,2013-02-09 18:20:00,
2013-02-09 13:26:00,62.2,51.1,30.25,ENE,73,9.0,10.0,67,0.00,,,0.00,Wunderground v.1.15,2013-02-09 18:26:00,
2013-02-09 13:32:00,62.0,49.7,30.25,East,80,9.0,13.0,64,0.00,,,0.00,Wunderground v.1.15,2013-02-09 18:32:00,
2013-02-09 13:38:00,61.7,49.8,30.25,ENE,61,10.0,13.0,65,0.00,,,0.00,Wunderground v.1.15,2013-02-09 18:38:00,
2013-02-09 13:44:00,61.6,49.7,30.25,ENE,76,10.0,10.0,65,0.00,,,0.00,Wunderground v.1.15,2013-02-09 18:44:00,
2013-02-09 13:50:00,61.8,50.3,30.24,ESE,117,9.0,9.0,66,0.00,,,0.00,Wunderground v.1.15,2013-02-09 18:50:00,
2013-02-09 13:56:00,62.1,50.6,30.24,ENE,59,9.0,9.0,66,0.00,,,0.00,Wunderground v.1.15,2013-02-09 18:56:00,
2013-02-09 14:02:00,61.9,50.0,30.24,ESE,109,9.0,17.0,65,0.00,,,0.00,Wunderground v.1.15,2013-02-09 19:02:00,
2013-02-09 14:08:00,62.0,48.8,30.24,ESE,117,9.0,17.0,62,0.00,,,0.00,Wunderground v.1.15,2013-02-09 19:08:00,
2013-02-09 14:14:00,62.4,48.8,30.25,ESE,110,7.0,9.0,61,0.00,,,0.00,Wunderground v.1.15,2013-02-09 19:14:00,
2013-02-09 14:20:00,62.1,48.5,30.24,ENE,59,8.0,10.0,61,0.00,,,0.00,Wunderground v.1.15,2013-02-09 19:20:00,
2013-02-09 14:26:00,62.2,48.6,30.24,East,86,8.0,11.0,61,0.00,,,0.00,Wunderground v.1.15,2013-02-09 19:26:00,
2013-02-09 14:32:00,62.0,48.0,30.24,East,88,8.0,15.0,60,0.00,,,0.00,Wunderground v.1.15,2013-02-09 19:32:00,
2013-02-09 14:38:00,61.8,47.3,30.24,NE,47,8.0,15.0,59,0.00,,,0.00,Wunderground v.1.15,2013-02-09 19:38:00,
2013-02-09 14:44:00,62.0,46.1,30.24,South,172,8.0,11.0,56,0.00,,,0.00,Wunderground v.1.15,2013-02-09 19:44:00,
2013-02-09 14:50:00,61.9,45.5,30.24,East,88,8.0,11.0,55,0.00,,,0.00,Wunderground v.1.15,2013-02-09 19:50:00,
2013-02-09 14:56:00,61.7,45.4,30.24,East,93,8.0,12.0,55,0.00,,,0.00,Wunderground v.1.15,2013-02-09 19:56:00,
2013-02-09 15:02:00,61.5,45.2,30.24,East,84,9.0,15.0,55,0.00,,,0.00,Wunderground v.1.15,2013-02-09 20:02:00,
2013-02-09 15:08:00,61.5,44.2,30.24,East,95,9.0,15.0,53,0.00,,,0.00,Wunderground v.1.15,2013-02-09 20:08:00,
2013-02-09 15:14:00,61.6,44.3,30.24,East,94,8.0,11.0,53,0.00,,,0.00,Wunderground v.1.15,2013-02-09 20:14:00,
2013-02-09 15:20:00,61.2,44.4,30.24,SE,127,9.0,9.0,54,0.00,,,0.00,Wunderground v.1.15,2013-02-09 20:20:00,
2013-02-09 15:26:00,61.3,43.0,30.24,SE,128,10.0,10.0,51,0.00,,,0.00,Wunderground v.1.15,2013-02-09 20:26:00,
2013-02-09 15:32:00,61.3,43.5,30.24,East,101,8.0,9.0,52,0.00,,,0.00,Wunderground v.1.15,2013-02-09 20:32:00,
2013-02-09 15:38:00,61.3,43.0,30.25,East,82,8.0,11.0,51,0.00,,,0.00,Wunderground v.1.15,2013-02-09 20:38:00,
2013-02-09 15:44:00,60.9,42.6,30.24,East,89,9.0,12.0,51,0.00,,,0.00,Wunderground v.1.15,2013-02-09 20:44:00,
2013-02-09 15:50:00,60.8,42.5,30.24,NE,40,9.0,9.0,51,0.00,,,0.00,Wunderground v.1.15,2013-02-09 20:50:00,
2013-02-09 15:56:00,60.7,43.0,30.25,ENE,69,8.0,16.0,52,0.00,,,0.00,Wunderground v.1.15,2013-02-09 20:56:00,
2013-02-09 16:02:00,60.6,41.8,30.25,East,92,9.0,14.0,50,0.00,,,0.00,Wunderground v.1.15,2013-02-09 21:02:00,
2013-02-09 16:08:00,60.6,42.9,30.25,North,10,10.0,16.0,52,0.00,,,0.00,Wunderground v.1.15,2013-02-09 21:08:00,
2013-02-09 16:14:00,60.3,42.6,30.24,ESE,113,9.0,10.0,52,0.00,,,0.00,Wunderground v.1.15,2013-02-09 21:14:00,
2013-02-09 16:20:00,60.2,42.0,30.24,SE,136,9.0,9.0,51,0.00,,,0.00,Wunderground v.1.15,2013-02-09 21:20:00,
2013-02-09 16:26:00,59.9,41.2,30.25,East,88,10.0,14.0,50,0.00,,,0.00,Wunderground v.1.15,2013-02-09 21:26:00,
2013-02-09 16:32:00,59.9,41.2,30.25,ESE,105,10.0,10.0,50,0.00,,,0.00,Wunderground v.1.15,2013-02-09 21:32:00,
2013-02-09 16:38:00,59.8,42.6,30.25,SE,126,9.0,10.0,53,0.00,,,0.00,Wunderground v.1.15,2013-02-09 21:38:00,
2013-02-09 16:44:00,59.9,41.7,30.25,SE,135,8.0,11.0,51,0.00,,,0.00,Wunderground v.1.15,2013-02-09 21:44:00,
2013-02-09 16:50:00,59.6,41.4,30.25,ENE,66,8.0,9.0,51,0.00,,,0.00,Wunderground v.1.15,2013-02-09 21:50:00,
2013-02-09 16:56:00,59.7,42.0,30.25,East,83,8.0,9.0,52,0.00,,,0.00,Wunderground v.1.15,2013-02-09 21:56:00,
2013-02-09 17:02:00,59.3,41.7,30.26,ENE,76,8.0,17.0,52,0.00,,,0.00,Wunderground v.1.15,2013-02-09 22:02:00,
2013-02-09 17:08:00,59.1,42.0,30.26,SE,132,8.0,17.0,53,0.00,,,0.00,Wunderground v.1.15,2013-02-09 22:08:00,
2013-02-09 17:14:00,58.9,41.3,30.26,NE,34,6.0,8.0,52,0.00,,,0.00,Wunderground v.1.15,2013-02-09 22:14:00,
2013-02-09 17:20:00,58.6,42.9,30.26,ESE,118,6.0,6.0,56,0.00,,,0.00,Wunderground v.1.15,2013-02-09 22:20:00,
2013-02-09 17:26:00,58.4,42.8,30.26,ESE,107,5.0,6.0,56,0.00,,,0.00,Wunderground v.1.15,2013-02-09 22:26:00,
2013-02-09 17:32:00,58.0,42.8,30.26,ESE,116,5.0,5.0,57,0.00,,,0.00,Wunderground v.1.15,2013-02-09 22:32:00,
2013-02-09 17:38:00,57.7,42.6,30.26,East,99,5.0,5.0,57,0.00,,,0.00,Wunderground v.1.15,2013-02-09 22:38:00,
2013-02-09 17:44:00,57.2,42.5,30.26,ESE,109,4.0,4.0,58,0.00,,,0.00,Wunderground v.1.15,2013-02-09 22:44:00,
2013-02-09 17:50:00,56.9,42.7,30.26,ENE,70,4.0,4.0,59,0.00,,,0.00,Wunderground v.1.15,2013-02-09 22:50:00,
2013-02-09 17:56:00,56.6,42.4,30.25,East,80,4.0,8.0,59,0.00,,,0.00,Wunderground v.1.15,2013-02-09 22:56:00,
2013-02-09 18:02:00,56.1,42.4,30.25,ENE,78,4.0,15.0,60,0.00,,,0.00,Wunderground v.1.15,2013-02-09 23:02:00,
2013-02-09 18:08:00,55.5,42.3,30.25,ESE,116,4.0,15.0,61,0.00,,,0.00,Wunderground v.1.15,2013-02-09 23:08:00,
2013-02-09 18:14:00,54.9,42.1,30.25,East,85,3.0,4.0,62,0.00,,,0.00,Wunderground v.1.15,2013-02-09 23:14:00,
2013-02-09 18:20:00,54.4,42.5,30.25,ESE,111,2.0,2.0,64,0.00,,,0.00,Wunderground v.1.15,2013-02-09 23:20:00,
2013-02-09 18:26:00,54.2,42.7,30.25,ESE,109,2.0,3.0,65,0.00,,,0.00,Wunderground v.1.15,2013-02-09 23:26:00,
2013-02-09 18:32:00,53.5,42.4,30.25,ENE,76,1.0,2.0,66,0.00,,,0.00,Wunderground v.1.15,2013-02-09 23:32:00,
2013-02-09 18:38:00,53.3,42.6,30.25,ESE,105,1.0,2.0,67,0.00,,,0.00,Wunderground v.1.15,2013-02-09 23:38:00,
2013-02-09 18:44:00,53.0,42.7,30.25,East,83,2.0,4.0,68,0.00,,,0.00,Wunderground v.1.15,2013-02-09 23:44:00,
2013-02-09 18:50:00,52.6,43.1,30.25,ENE,61,3.0,3.0,70,0.00,,,0.00,Wunderground v.1.15,2013-02-09 23:50:00,
2013-02-09 18:56:00,52.2,43.1,30.25,East,86,2.0,3.0,71,0.00,,,0.00,Wunderground v.1.15,2013-02-09 23:56:00,
2013-02-09 19:02:00,51.8,43.4,30.25,NE,54,2.0,11.0,73,0.00,,,0.00,Wunderground v.1.15,2013-02-10 00:02:00,
2013-02-09 19:08:00,51.7,43.3,30.25,East,80,2.0,11.0,73,0.00,,,0.00,Wunderground v.1.15,2013-02-10 00:08:00,
2013-02-09 19:14:00,51.6,43.6,30.25,East,96,1.0,2.0,74,0.00,,,0.00,Wunderground v.1.15,2013-02-10 00:14:00,
2013-02-09 19:20:00,51.4,43.7,30.25,NE,53,1.0,1.0,75,0.00,,,0.00,Wunderground v.1.15,2013-02-10 00:20:00,
2013-02-09 19:26:00,51.3,43.6,30.25,ENE,63,1.0,2.0,75,0.00,,,0.00,Wunderground v.1.15,2013-02-10 00:26:00,
2013-02-09 19:32:00,51.4,44.1,30.25,East,79,1.0,2.0,76,0.00,,,0.00,Wunderground v.1.15,2013-02-10 00:32:00,
2013-02-09 19:38:00,51.5,44.2,30.26,ENE,70,1.0,2.0,76,0.00,,,0.00,Wunderground v.1.15,2013-02-10 00:38:00,
2013-02-09 19:44:00,51.5,43.8,30.26,ENE,70,0.0,0.0,75,0.00,,,0.00,Wunderground v.1.15,2013-02-10 00:44:00,
2013-02-09 19:50:00,51.2,43.5,30.26,ENE,69,0.0,0.0,75,0.00,,,0.00,Wunderground v.1.15,2013-02-10 00:50:00,
2013-02-09 19:56:00,51.0,43.7,30.26,ENE,70,0.0,0.0,76,0.00,,,0.00,Wunderground v.1.15,2013-02-10 00:56:00,
2013-02-09 20:02:00,50.9,43.9,30.26,ENE,74,0.0,4.0,77,0.00,,,0.00,Wunderground v.1.15,2013-02-10 01:02:00,
2013-02-09 20:08:00,50.9,43.9,30.26,ENE,74,0.0,4.0,77,0.00,,,0.00,Wunderground v.1.15,2013-02-10 01:08:00,
2013-02-09 20:14:00,51.0,44.0,30.26,ENE,72,0.0,0.0,77,0.00,,,0.00,Wunderground v.1.15,2013-02-10 01:14:00,
2013-02-09 20:20:00,50.5,43.6,30.27,ENE,73,0.0,0.0,77,0.00,,,0.00,Wunderground v.1.15,2013-02-10 01:20:00,
2013-02-09 20:26:00,50.2,43.6,30.27,ENE,72,0.0,0.0,78,0.00,,,0.00,Wunderground v.1.15,2013-02-10 01:26:00,
2013-02-09 20:32:00,49.8,43.5,30.27,ENE,73,0.0,0.0,79,0.00,,,0.00,Wunderground v.1.15,2013-02-10 01:32:00,
2013-02-09 20:38:00,49.2,43.3,30.27,ENE,73,0.0,0.0,80,0.00,,,0.00,Wunderground v.1.15,2013-02-10 01:38:00,
2013-02-09 20:44:00,49.1,43.5,30.27,ENE,72,0.0,0.0,81,0.00,,,0.00,Wunderground v.1.15,2013-02-10 01:44:00,
2013-02-09 20:50:00,48.9,43.6,30.27,ENE,73,0.0,0.0,82,0.00,,,0.00,Wunderground v.1.15,2013-02-10 01:50:00,
2013-02-09 20:56:00,48.8,43.9,30.27,ENE,73,0.0,0.0,83,0.00,,,0.00,Wunderground v.1.15,2013-02-10 01:56:00,
2013-02-09 21:02:00,48.5,43.9,30.28,ENE,72,0.0,1.0,84,0.00,,,0.00,Wunderground v.1.15,2013-02-10 02:02:00,
2013-02-09 21:08:00,48.5,44.2,30.28,ENE,73,0.0,1.0,85,0.00,,,0.00,Wunderground v.1.15,2013-02-10 02:08:00,
2013-02-09 21:14:00,48.4,44.1,30.28,ENE,72,0.0,0.0,85,0.00,,,0.00,Wunderground v.1.15,2013-02-10 02:14:00,
2013-02-09 21:20:00,48.4,44.4,30.29,NW,317,0.0,0.0,86,0.00,,,0.00,Wunderground v.1.15,2013-02-10 02:20:00,
2013-02-09 21:26:00,48.5,44.5,30.29,NW,318,0.0,0.0,86,0.00,,,0.00,Wunderground v.1.15,2013-02-10 02:26:00,
2013-02-09 21:32:00,48.8,44.8,30.29,NW,319,0.0,0.0,86,0.00,,,0.00,Wunderground v.1.15,2013-02-10 02:32:00,
2013-02-09 21:38:00,48.7,44.7,30.29,NW,319,0.0,0.0,86,0.00,,,0.00,Wunderground v.1.15,2013-02-10 02:38:00,
2013-02-09 21:44:00,48.7,45.0,30.29,ENE,60,0.0,0.0,87,0.00,,,0.00,Wunderground v.1.15,2013-02-10 02:44:00,
2013-02-09 21:50:00,48.9,44.9,30.29,ENE,63,0.0,0.0,86,0.00,,,0.00,Wunderground v.1.15,2013-02-10 02:50:00,
2013-02-09 21:56:00,49.1,45.1,30.29,NNE,14,0.0,1.0,86,0.00,,,0.00,Wunderground v.1.15,2013-02-10 02:56:00,
2013-02-09 22:02:00,49.4,45.1,30.29,ENE,63,1.0,1.0,85,0.00,,,0.00,Wunderground v.1.15,2013-02-10 03:02:00,
2013-02-09 22:08:00,50.1,45.8,30.29,NE,47,1.0,2.0,85,0.00,,,0.00,Wunderground v.1.15,2013-02-10 03:08:00,
2013-02-09 22:14:00,50.9,45.9,30.29,ENE,57,1.0,3.0,83,0.00,,,0.00,Wunderground v.1.15,2013-02-10 03:14:00,
2013-02-09 22:20:00,51.6,46.0,30.29,ENE,73,2.0,2.0,81,0.00,,,0.00,Wunderground v.1.15,2013-02-10 03:20:00,
2013-02-09 22:26:00,51.5,45.9,30.29,East,94,2.0,3.0,81,0.00,,,0.00,Wunderground v.1.15,2013-02-10 03:26:00,
2013-02-09 22:32:00,52.0,46.3,30.29,NE,51,2.0,2.0,81,0.00,,,0.00,Wunderground v.1.15,2013-02-10 03:32:00,
2013-02-09 22:38:00,52.1,46.1,30.28,ENE,76,3.0,3.0,80,0.00,,,0.00,Wunderground v.1.15,2013-02-10 03:38:00,
2013-02-09 22:44:00,51.9,45.9,30.29,ENE,76,2.0,3.0,80,0.00,,,0.00,Wunderground v.1.15,2013-02-10 03:44:00,
2013-02-09 22:50:00,52.2,46.2,30.28,NE,52,2.0,2.0,80,0.00,,,0.00,Wunderground v.1.15,2013-02-10 03:50:00,
2013-02-09 22:56:00,52.7,46.4,30.28,SE,126,3.0,4.0,79,0.00,,,0.00,Wunderground v.1.15,2013-02-10 03:56:00,
2013-02-09 23:02:00,53.0,46.3,30.28,East,101,4.0,4.0,78,0.00,,,0.00,Wunderground v.1.15,2013-02-10 04:02:00,
2013-02-09 23:08:00,53.3,46.3,30.28,ENE,76,2.0,4.0,77,0.00,,,0.00,Wunderground v.1.15,2013-02-10 04:08:00,
2013-02-09 23:14:00,53.5,46.5,30.28,East,87,2.0,2.0,77,0.00,,,0.00,Wunderground v.1.15,2013-02-10 04:14:00,
2013-02-09 23:20:00,53.9,46.9,30.28,East,91,2.0,2.0,77,0.00,,,0.00,Wunderground v.1.15,2013-02-10 04:20:00,
2013-02-09 23:26:00,54.0,46.6,30.28,ENE,58,1.0,2.0,76,0.00,,,0.00,Wunderground v.1.15,2013-02-10 04:26:00,
2013-02-09 23:32:00,54.2,47.1,30.28,ESE,111,2.0,2.0,77,0.00,,,0.00,Wunderground v.1.15,2013-02-10 04:32:00,
2013-02-09 23:38:00,54.4,47.0,30.28,ESE,103,2.0,3.0,76,0.00,,,0.00,Wunderground v.1.15,2013-02-10 04:38:00,
2013-02-09 23:44:00,54.5,47.1,30.28,ENE,76,2.0,2.0,76,0.00,,,0.00,Wunderground v.1.15,2013-02-10 04:44:00,
2013-02-09 23:50:00,54.5,47.1,30.28,ENE,74,1.0,2.0,76,0.00,,,0.00,Wunderground v.1.15,2013-02-10 04:50:00,
2013-02-09 23:56:00,54.5,47.1,30.28,ENE,78,1.0,2.0,76,0.00,,,0.00,Wunderground v.1.15,2013-02-10 04:56:00,